FW2111 Weather Reports


Display with metric or nautical units.
time (UTC)temp
F
wind
direction
speed
MPH
gust
MPH
rain 1hr
in
rain 24hr
in
rain mn
in
humidity
%
barometer
mb
20260505002914 46 316 7.0 15.0 0.00 0.00 0.00 31 1002.4
20260505002351 46 259 6.0 19.0 0.00 0.00 0.00 31 1002.3
20260505001852 46 261 7.0 19.0 0.00 0.00 0.00 31 1002.4
20260505001329 46 227 9.0 23.0 0.00 0.00 0.00 31 1002.2
20260505000827 46 330 9.0 23.0 0.00 0.00 0.00 30 1002.2
20260505000327 46 270 7.0 20.0 0.00 0.00 0.00 31 1002.3
20260504235824 46 257 7.0 19.0 0.00 0.00 0.00 31 1002.2
20260504235322 46 236 9.0 21.0 0.00 0.00 0.00 31 1002.2
20260504234819 46 290 11.0 23.0 0.00 0.00 0.00 32 1002.3
20260504234321 46 136 9.0 21.0 0.00 0.00 0.00 32 1002.2
20260504233754 46 229 9.0 25.0 0.00 0.00 0.00 33 1002.2
20260504233231 46 336 10.0 25.0 0.00 0.00 0.00 33 1002.3
20260504232710 45 271 8.0 21.0 0.00 0.00 0.00 34 1002.4
20260504232153 45 254 10.0 24.0 0.00 0.00 0.00 35 1002.4
20260504231655 45 254 9.0 24.0 0.00 0.00 0.00 37 1002.4
20260504231131 46 336 8.0 23.0 0.00 0.00 0.00 39 1002.3
20260504230616 46 246 9.0 23.0 0.00 0.00 0.00 39 1002.1
20260504230051 46 234 11.0 21.0 0.00 0.00 0.00 40 1002.1
20260504225529 46 285 9.0 20.0 0.00 0.00 0.00 40 1002.1
20260504225005 46 238 6.0 15.0 0.00 0.00 0.00 39 1002.1
20260504224504 46 338 6.0 16.0 0.00 0.00 0.00 39 1002.1
20260504224212 46 306 10.0 24.0 0.00 0.00 0.00 39 1002.0
20260504223416 47 291 10.0 24.0 0.00 0.00 0.00 38 1001.9
20260504222915 47 284 7.0 16.0 0.00 0.00 0.00 39 1001.7
20260504222411 47 298 8.0 24.0 0.00 0.00 0.00 39 1001.7
20260504221910 47 300 10.0 21.0 0.00 0.00 0.00 38 1001.6
20260504221404 47 253 10.0 21.0 0.00 0.00 0.00 39 1001.6
20260504220903 47 261 9.0 26.0 0.00 0.00 0.00 39 1001.4
20260504220336 47 202 11.0 26.0 0.00 0.00 0.00 38 1001.5
20260504215808 47 261 10.0 24.0 0.00 0.00 0.00 38 1001.3
20260504215305 48 275 9.0 21.0 0.00 0.00 0.00 37 1001.3
20260504214738 48 263 9.0 20.0 0.00 0.00 0.00 37 1001.2
20260504214212 48 262 7.0 20.0 0.00 0.00 0.00 36 1000.9
20260504213649 49 298 9.0 23.0 0.00 0.00 0.00 37 1000.8
20260504213353 48 315 11.0 24.0 0.00 0.00 0.00 37 1000.7
20260504212827 48 15 10.0 24.0 0.00 0.00 0.00 37 1000.6
20260504212052 49 202 11.0 21.0 0.00 0.00 0.00 37 1000.4
20260504211526 49 263 10.0 20.0 0.00 0.00 0.00 37 1000.4
20260504210959 49 196 9.0 20.0 0.00 0.00 0.00 36 1000.4
20260504210430 49 285 9.0 20.0 0.00 0.00 0.00 36 1000.4
20260504210158 49 303 11.0 25.0 0.00 0.00 0.00 37 1000.4
20260504205421 49 261 12.0 25.0 0.00 0.00 0.00 36 1000.2
20260504204917 49 299 10.0 24.0 0.00 0.00 0.00 35 1000.2
20260504204853 50 298 9.0 19.0 0.00 0.00 0.00 36 1000.2
20260504203823 49 238 11.0 23.0 0.00 0.00 0.00 35 1000.0
20260504203551 49 266 11.0 26.0 0.00 0.00 0.00 36 1000.0
20260504202752 50 237 10.0 26.0 0.00 0.00 0.00 35 1000.0
20260504202250 50 265 11.0 24.0 0.00 0.00 0.00 34 1000.0
20260504202226 50 222 12.0 24.0 0.00 0.00 0.00 34 999.8
20260504201428 50 271 10.0 24.0 0.00 0.00 0.00 34 999.8
20260504200654 50 289 9.0 24.0 0.00 0.00 0.00 34 999.8
20260504200126 49 329 11.0 24.0 0.00 0.00 0.00 34 999.8
20260504195624 49 315 12.0 25.0 0.00 0.00 0.00 35 999.7
20260504195117 49 293 12.0 28.0 0.00 0.00 0.00 34 999.6
20260504194548 50 241 12.0 28.0 0.00 0.00 0.00 35 999.7
20260504194046 50 238 10.0 27.0 0.00 0.00 0.00 35 999.5
20260504193525 50 262 10.0 27.0 0.00 0.00 0.00 34 999.5
20260504193027 50 310 11.0 25.0 0.00 0.00 0.00 34 999.1
20260504192526 50 226 9.0 23.0 0.00 0.00 0.00 33 999.1
20260504192024 50 281 11.0 29.0 0.00 0.00 0.00 34 999.1
20260504191528 50 245 11.0 29.0 0.00 0.00 0.00 33 998.9
20260504191027 51 219 11.0 29.0 0.00 0.00 0.00 35 998.7
20260504190834 50 286 13.0 29.0 0.00 0.00 0.00 34 998.8
20260504190730 51 251 14.0 25.0 0.00 0.00 0.00 34 998.7
20260504185428 50 329 14.0 33.0 0.00 0.00 0.00 35 998.6
20260504184926 50 330 12.0 26.0 0.00 0.00 0.00 35 998.6
20260504184358 51 259 11.0 29.0 0.00 0.00 0.00 36 998.5
20260504183856 50 252 11.0 29.0 0.00 0.00 0.00 37 998.5
20260504183351 50 288 12.0 23.0 0.00 0.00 0.00 37 998.2
20260504182848 50 209 11.0 23.0 0.00 0.00 0.00 37 998.4
20260504182322 51 287 9.0 22.0 0.00 0.00 0.00 36 998.2
20260504181755 51 254 11.0 29.0 0.00 0.00 0.00 35 998.1
20260504181252 51 313 12.0 29.0 0.00 0.00 0.00 36 997.9
20260504180956 50 204 13.0 26.0 0.00 0.00 0.00 37 997.9
20260504180221 50 293 10.0 26.0 0.00 0.00 0.00 39 997.8
20260504175655 50 247 7.0 23.0 0.00 0.00 0.00 39 997.9
20260504175129 50 240 9.0 23.0 0.00 0.00 0.00 40 997.8
20260504174626 50 323 9.0 23.0 0.00 0.00 0.00 40 997.8
20260504174058 50 227 8.0 23.0 0.00 0.00 0.00 40 997.7
20260504173555 50 259 8.0 23.0 0.00 0.00 0.00 40 997.7
20260504173027 50 196 10.0 23.0 0.00 0.00 0.00 40 997.5
20260504172502 50 257 10.0 25.0 0.00 0.00 0.00 39 997.4
20260504171934 50 76 10.0 25.0 0.00 0.00 0.00 39 997.5
20260504171431 49 263 11.0 28.0 0.00 0.00 0.00 41 997.4
20260504170905 49 296 10.0 28.0 0.00 0.00 0.00 40 997.3
20260504170340 50 254 12.0 28.0 0.00 0.00 0.00 41 997.3
20260504150832 52 331 11.0 23.0 0.00 0.00 0.00 41 994.8
20260504150334 52 283 13.0 26.0 0.00 0.00 0.00 42 994.8
20260504141133 53 274 10.0 30.0 0.00 0.00 0.00 43 994.3
20260504140906 53 257 11.0 26.0 0.00 0.00 0.00 46 994.2
20260504140109 53 313 7.0 24.0 0.00 0.00 0.00 46 994.0
20260504130342 51 209 7.0 15.0 0.00 0.00 0.00 54 993.3
20260504110443 55 269 10.0 32.0 0.00 0.00 0.00 45 991.8
20260504110148 57 306 8.0 32.0 0.00 0.00 0.00 44 991.8
20260504100144 61 237 10.0 17.0 0.00 0.00 0.00 23 990.6
20260504081637 61 192 9.0 19.0 0.00 0.00 0.00 23 992.6
20260504081112 61 179 9.0 18.0 0.00 0.00 0.00 23 992.8
20260504080546 61 219 9.0 20.0 0.00 0.00 0.00 24 993.0
20260504070322 60 219 6.0 18.0 0.00 0.00 0.00 26 994.5
20260504060128 59 238 6.0 16.0 0.00 0.00 0.00 25 996.4
20260504050444 60 205 6.0 12.0 0.00 0.00 0.00 23 997.3
20260504045945 60 221 6.0 11.0 0.00 0.00 0.00 23 997.5
20260504045417 60 227 6.0 12.0 0.00 0.00 0.00 23 997.6
20260504044852 60 191 7.0 15.0 0.00 0.00 0.00 23 997.7
20260504044326 60 231 6.0 15.0 0.00 0.00 0.00 23 997.9
20260504043807 59 239 5.0 10.0 0.00 0.00 0.00 23 998.1
20260504043309 59 198 5.0 10.0 0.00 0.00 0.00 24 998.2
20260504042745 59 232 4.0 10.0 0.00 0.00 0.00 23 998.3
20260504042246 59 231 5.0 11.0 0.00 0.00 0.00 23 998.4
20260504041727 60 234 5.0 11.0 0.00 0.00 0.00 23 998.5
20260504041227 59 226 4.0 9.0 0.00 0.00 0.00 23 998.6
20260504040702 59 222 4.0 8.0 0.00 0.00 0.00 23 998.9
20260504040411 60 217 4.0 9.0 0.00 0.00 0.00 23 999.0
20260504035639 59 234 4.0 9.0 0.00 0.00 0.00 23 999.1
20260504035119 59 219 4.0 8.0 0.00 0.00 0.00 24 999.4
20260504034851 59 238 3.0 8.0 0.00 0.00 0.00 24 999.5
20260504034102 59 210 2.0 5.0 0.00 0.00 0.00 24 999.6
20260504033835 59 201 1.0 5.0 0.00 0.00 0.00 24 999.7
20260504033041 59 208 0.0 2.0 0.00 0.00 0.00 23 999.9
20260504032534 60 208 1.0 3.0 0.00 0.00 0.00 22 1000.0
20260504032032 60 209 1.0 5.0 0.00 0.00 0.00 22 1000.2
20260504031516 60 209 2.0 5.0 0.00 0.00 0.00 22 1000.2
20260504031015 60 217 1.0 4.0 0.00 0.00 0.00 21 1000.4
20260504030513 60 196 2.0 7.0 0.00 0.00 0.00 22 1000.4
20260504025955 61 228 2.0 7.0 0.00 0.00 0.00 21 1000.6
20260504025454 61 207 2.0 8.0 0.00 0.00 0.00 21 1000.6
20260504024952 61 199 2.0 8.0 0.00 0.00 0.00 20 1000.7
20260504024721 61 198 2.0 5.0 0.00 0.00 0.00 20 1000.7
20260504024158 61 198 3.0 5.0 0.00 0.00 0.00 20 1000.9
20260504023402 62 223 3.0 7.0 0.00 0.00 0.00 20 1000.8
20260504022835 62 252 3.0 7.0 0.00 0.00 0.00 20 1000.9
20260504022812 62 229 3.0 7.0 0.00 0.00 0.00 19 1001.0
20260504022427 62 258 4.0 7.0 0.00 0.00 0.00 19 1001.1
20260504021241 61 220 3.0 6.0 0.00 0.00 0.00 20 1001.2
20260504020716 61 246 3.0 5.0 0.00 0.00 0.00 20 1001.3
20260504020150 60 261 2.0 4.0 0.00 0.00 0.00 21 1001.4
20260504015856 60 263 3.0 6.0 0.00 0.00 0.00 24 1001.4
20260504015057 60 275 3.0 4.0 0.00 0.00 0.00 21 1001.5
20260504014531 61 278 3.0 6.0 0.00 0.00 0.00 20 1001.6
20260504014028 62 270 3.0 6.0 0.00 0.00 0.00 19 1001.7
20260504013737 62 269 3.0 4.0 0.00 0.00 0.00 19 1001.8
20260504012959 62 259 3.0 4.0 0.00 0.00 0.00 20 1001.8
20260504012457 62 248 2.0 4.0 0.00 0.00 0.00 19 1001.8
20260504011928 63 248 2.0 4.0 0.00 0.00 0.00 17 1001.9
20260504011403 64 247 2.0 3.0 0.00 0.00 0.00 17 1002.0
20260504010901 64 247 2.0 3.0 0.00 0.00 0.00 17 1002.0
20260504010358 65 246 1.0 3.0 0.00 0.00 0.00 16 1002.1
20260504005847 65 250 2.0 6.0 0.00 0.00 0.00 16 1002.1
20260504005615 65 250 2.0 6.0 0.00 0.00 0.00 15 1002.2
20260504004845 65 219 2.0 7.0 0.00 0.00 0.00 15 1002.3
20260504004324 65 219 2.0 6.0 0.00 0.00 0.00 15 1002.4
20260504003814 65 234 1.0 6.0 0.00 0.00 0.00 15 1002.3